BAW39B EGLL-EBBR

Flight info

Callsign BAW39B
Flight time 0h 42m
Altitude 23000
Route DCT DET Q70 KOK DCT
Aircraft A320/M-SDE3FGIJ1KRWXY/SB1

Departure

Time 2026-05-07 18:44
Airport London Heathrow Airport (EGLL)

Arrival

Time 2026-05-07 19:26
Airport Brussels Airport (EBBR)
Time Latitude Longitude Altitude Speed Heading
2026-05-07 18:24 51.46928 -0.48650 87 ft 0 kts 360°
2026-05-07 18:31 51.46917 -0.48650 91 ft 4 kts 359°
2026-05-07 18:31 51.46892 -0.48648 90 ft 3 kts 346°
2026-05-07 18:32 51.46880 -0.48640 89 ft 2 kts 287°
2026-05-07 18:32 51.46878 -0.48622 91 ft 2 kts 272°
2026-05-07 18:32 51.46877 -0.48610 89 ft 0 kts 270°
2026-05-07 18:37 51.46877 -0.48611 89 ft 1 kts 270°
2026-05-07 18:37 51.46877 -0.48635 87 ft 3 kts 269°
2026-05-07 18:37 51.46876 -0.48683 89 ft 5 kts 269°
2026-05-07 18:37 51.46865 -0.48745 89 ft 6 kts 224°
2026-05-07 18:38 51.46812 -0.48751 88 ft 9 kts 180°
2026-05-07 18:38 51.46807 -0.48751 88 ft 0 kts 180°
2026-05-07 18:39 51.46801 -0.48750 87 ft 2 kts 180°
2026-05-07 18:39 51.46776 -0.48750 87 ft 5 kts 180°
2026-05-07 18:40 51.46733 -0.48750 87 ft 8 kts 180°
2026-05-07 18:40 51.46672 -0.48750 87 ft 8 kts 180°
2026-05-07 18:40 51.46613 -0.48764 90 ft 9 kts 198°
2026-05-07 18:40 51.46592 -0.48775 89 ft 0 kts 198°
2026-05-07 18:42 51.46587 -0.48777 88 ft 2 kts 198°
2026-05-07 18:42 51.46565 -0.48786 88 ft 5 kts 192°
2026-05-07 18:42 51.46509 -0.48774 90 ft 11 kts 152°
2026-05-07 18:43 51.46479 -0.48666 88 ft 12 kts 92°
2026-05-07 18:43 51.46481 -0.48423 89 ft 45 kts 88°
2026-05-07 18:43 51.46478 -0.47551 85 ft 108 kts 90°
2026-05-07 18:43 51.46487 -0.46096 92 ft 153 kts 90°
2026-05-07 18:44 51.46484 -0.44333 583 ft 159 kts 92°
2026-05-07 18:44 51.46487 -0.42563 1292 ft 159 kts 95°
2026-05-07 18:44 51.46068 -0.40881 1666 ft 175 kts 131°
2026-05-07 18:44 51.45271 -0.39241 1942 ft 198 kts 124°
2026-05-07 18:45 51.44500 -0.37227 2258 ft 225 kts 121°
2026-05-07 18:45 51.43710 -0.34912 2714 ft 248 kts 112°
2026-05-07 18:45 51.43294 -0.32168 3494 ft 258 kts 102°
2026-05-07 18:45 51.42921 -0.29338 4432 ft 261 kts 102°
2026-05-07 18:46 51.42521 -0.26466 5191 ft 267 kts 102°
2026-05-07 18:46 51.42117 -0.23542 5490 ft 269 kts 102°
2026-05-07 18:46 51.41710 -0.20578 5752 ft 269 kts 102°
2026-05-07 18:46 51.41307 -0.17633 6201 ft 272 kts 102°
2026-05-07 18:47 51.40901 -0.14664 7119 ft 275 kts 103°
2026-05-07 18:47 51.40488 -0.11652 7951 ft 279 kts 103°
2026-05-07 18:47 51.40066 -0.08588 8771 ft 284 kts 104°
2026-05-07 18:47 51.39635 -0.05467 9596 ft 289 kts 104°
2026-05-07 18:48 51.39196 -0.02299 10344 ft 296 kts 104°
2026-05-07 18:48 51.38728 0.01039 10591 ft 319 kts 104°
2026-05-07 18:48 51.38221 0.04631 10851 ft 339 kts 104°
2026-05-07 18:48 51.37699 0.08352 11452 ft 346 kts 104°
2026-05-07 18:49 51.37172 0.12124 12134 ft 349 kts 104°
2026-05-07 18:49 51.36637 0.15943 12837 ft 353 kts 104°
2026-05-07 18:49 51.36098 0.19783 13534 ft 356 kts 104°
2026-05-07 18:49 51.35552 0.23667 14185 ft 359 kts 104°
2026-05-07 18:50 51.34999 0.27587 14785 ft 363 kts 104°
2026-05-07 18:50 51.34436 0.31544 15371 ft 367 kts 104°
2026-05-07 18:50 51.33867 0.35544 15756 ft 371 kts 104°
2026-05-07 18:50 51.33291 0.39591 16316 ft 375 kts 104°
2026-05-07 18:51 51.32709 0.43668 16881 ft 379 kts 104°
2026-05-07 18:51 51.32116 0.47795 17446 ft 382 kts 104°
2026-05-07 18:51 51.31516 0.51958 18028 ft 386 kts 104°
2026-05-07 18:51 51.30907 0.56165 18547 ft 391 kts 104°
2026-05-07 18:52 51.30393 0.60443 19080 ft 395 kts 97°
2026-05-07 18:52 51.30215 0.64897 19619 ft 398 kts 94°
2026-05-07 18:52 51.30064 0.69281 20163 ft 401 kts 94°
2026-05-07 18:52 51.29903 0.73807 20695 ft 405 kts 94°
2026-05-07 18:53 51.29739 0.78313 21210 ft 408 kts 94°
2026-05-07 18:53 51.29572 0.82851 21716 ft 411 kts 94°
2026-05-07 18:53 51.29403 0.87417 22258 ft 414 kts 94°
2026-05-07 18:53 51.29229 0.92029 22725 ft 417 kts 94°
2026-05-07 18:54 51.29049 0.96672 23026 ft 420 kts 94°
2026-05-07 18:54 51.28865 1.01367 23086 ft 429 kts 94°
2026-05-07 18:54 51.28675 1.06204 23082 ft 443 kts 94°
2026-05-07 18:54 51.28478 1.11187 23083 ft 455 kts 95°
2026-05-07 18:55 51.28082 1.16258 23080 ft 464 kts 100°
2026-05-07 18:55 51.27548 1.21355 23079 ft 467 kts 101°
2026-05-07 18:55 51.26974 1.26459 23072 ft 467 kts 101°
2026-05-07 18:55 51.26376 1.31559 23075 ft 467 kts 102°
2026-05-07 18:56 51.25774 1.36659 23075 ft 468 kts 102°
2026-05-07 18:56 51.25178 1.41758 23079 ft 468 kts 101°
2026-05-07 18:56 51.24584 1.46868 23078 ft 468 kts 101°
2026-05-07 18:56 51.24003 1.51896 23074 ft 450 kts 101°
2026-05-07 18:57 51.23454 1.56692 23074 ft 432 kts 101°
2026-05-07 18:57 51.22916 1.61376 23075 ft 428 kts 101°
2026-05-07 18:57 51.22377 1.66034 23074 ft 427 kts 101°
2026-05-07 18:57 51.21836 1.70690 23075 ft 426 kts 102°
2026-05-07 18:58 51.21293 1.75336 23074 ft 426 kts 102°
2026-05-07 18:58 51.20740 1.80043 23078 ft 426 kts 102°
2026-05-07 18:58 51.20193 1.84686 23080 ft 426 kts 102°
2026-05-07 18:58 51.19642 1.89331 23078 ft 426 kts 102°
2026-05-07 18:59 51.19090 1.93973 23077 ft 426 kts 102°
2026-05-07 18:59 51.18536 1.98609 23080 ft 426 kts 102°
2026-05-07 18:59 51.17979 2.03246 23077 ft 426 kts 102°
2026-05-07 18:59 51.17419 2.07890 23084 ft 426 kts 102°
2026-05-07 19:00 51.16861 2.12518 23081 ft 426 kts 102°
2026-05-07 19:00 51.16300 2.17161 23082 ft 426 kts 102°
2026-05-07 19:00 51.15737 2.21802 23082 ft 426 kts 102°
2026-05-07 19:00 51.15170 2.26439 23080 ft 426 kts 102°
2026-05-07 19:01 51.14601 2.31078 23084 ft 426 kts 102°
2026-05-07 19:01 51.14036 2.35705 23077 ft 426 kts 102°
2026-05-07 19:01 51.13467 2.40342 23081 ft 426 kts 102°
2026-05-07 19:01 51.12896 2.44977 23081 ft 426 kts 102°
2026-05-07 19:02 51.12320 2.49611 23083 ft 427 kts 102°
2026-05-07 19:02 51.11743 2.54241 23091 ft 427 kts 102°
2026-05-07 19:02 51.11167 2.58862 23090 ft 427 kts 102°
2026-05-07 19:02 51.10586 2.63499 23090 ft 427 kts 102°
2026-05-07 19:03 51.10004 2.68117 23092 ft 426 kts 102°
2026-05-07 19:03 51.09419 2.72745 23094 ft 426 kts 102°
2026-05-07 19:03 51.08835 2.77362 23092 ft 426 kts 102°
2026-05-07 19:03 51.08247 2.81994 23090 ft 426 kts 102°
2026-05-07 19:04 51.07660 2.86608 23094 ft 426 kts 102°
2026-05-07 19:04 51.07070 2.91229 23091 ft 426 kts 102°
2026-05-07 19:04 51.06477 2.95841 23025 ft 422 kts 103°
2026-05-07 19:04 51.06083 2.98904 22832 ft 415 kts 102°
2026-05-07 19:05 51.05512 3.03341 22564 ft 406 kts 103°
2026-05-07 19:05 51.04948 3.07704 22291 ft 402 kts 103°
2026-05-07 19:05 51.04387 3.12041 22023 ft 399 kts 103°
2026-05-07 19:05 51.03978 3.16389 21758 ft 398 kts 91°
2026-05-07 19:06 51.04064 3.20771 21422 ft 396 kts 88°
2026-05-07 19:06 51.04362 3.29416 20493 ft 388 kts 87°
2026-05-07 19:06 51.04510 3.33688 20022 ft 385 kts 87°
2026-05-07 19:07 51.04654 3.37917 19568 ft 382 kts 87°
2026-05-07 19:07 51.04796 3.42121 19100 ft 379 kts 87°
2026-05-07 19:07 51.04934 3.46283 18640 ft 376 kts 87°
2026-05-07 19:07 51.05070 3.50415 18167 ft 373 kts 87°
2026-05-07 19:08 51.05205 3.54512 17660 ft 370 kts 87°
2026-05-07 19:08 51.05340 3.58575 17171 ft 367 kts 87°
2026-05-07 19:08 51.05475 3.62604 16687 ft 364 kts 87°
2026-05-07 19:08 51.05610 3.66608 16207 ft 361 kts 87°
2026-05-07 19:09 51.05746 3.70575 15727 ft 358 kts 87°
2026-05-07 19:09 51.05882 3.74510 15265 ft 355 kts 87°
2026-05-07 19:09 51.06019 3.78470 14803 ft 353 kts 87°
2026-05-07 19:09 51.06152 3.82349 14355 ft 350 kts 88°
2026-05-07 19:10 51.06286 3.86194 13919 ft 347 kts 88°
2026-05-07 19:10 51.06420 3.90012 13430 ft 345 kts 87°
2026-05-07 19:10 51.06551 3.93780 12964 ft 342 kts 87°
2026-05-07 19:10 51.06678 3.97539 12502 ft 340 kts 88°
2026-05-07 19:11 51.06803 4.01286 12048 ft 338 kts 88°
2026-05-07 19:11 51.06925 4.04990 11612 ft 335 kts 88°
2026-05-07 19:11 51.07045 4.08683 11181 ft 333 kts 88°
2026-05-07 19:11 51.07161 4.12349 10759 ft 331 kts 88°
2026-05-07 19:12 51.07274 4.15982 10426 ft 326 kts 88°
2026-05-07 19:12 51.07383 4.19528 10290 ft 315 kts 88°
2026-05-07 19:12 51.07490 4.22954 10158 ft 305 kts 88°
2026-05-07 19:12 51.07592 4.26269 10031 ft 296 kts 88°
2026-05-07 19:13 51.07690 4.29509 9762 ft 292 kts 88°
2026-05-07 19:13 51.07787 4.32727 9437 ft 290 kts 88°
2026-05-07 19:13 51.07882 4.35914 9117 ft 288 kts 88°
2026-05-07 19:13 51.07977 4.39084 8789 ft 286 kts 88°
2026-05-07 19:14 51.08071 4.42234 8483 ft 284 kts 88°
2026-05-07 19:14 51.08163 4.45361 8180 ft 282 kts 88°
2026-05-07 19:14 51.08253 4.48459 8070 ft 281 kts 88°
2026-05-07 19:14 51.08343 4.51573 8082 ft 282 kts 88°
2026-05-07 19:15 51.08433 4.54685 8085 ft 282 kts 88°
2026-05-07 19:15 51.08522 4.57842 8087 ft 282 kts 88°
2026-05-07 19:15 51.08610 4.60951 8085 ft 282 kts 88°
2026-05-07 19:15 51.08698 4.64069 8085 ft 282 kts 88°
2026-05-07 19:16 51.08785 4.67177 8081 ft 281 kts 88°
2026-05-07 19:16 51.08872 4.70269 7793 ft 279 kts 88°
2026-05-07 19:16 51.08957 4.73349 7474 ft 278 kts 88°
2026-05-07 19:16 51.09043 4.76406 7171 ft 276 kts 88°
2026-05-07 19:17 51.09126 4.79420 7015 ft 269 kts 88°
2026-05-07 19:17 51.09049 4.82330 6885 ft 259 kts 105°
2026-05-07 19:17 51.08481 4.84971 6735 ft 246 kts 112°
2026-05-07 19:17 51.07852 4.87450 6370 ft 239 kts 112°
2026-05-07 19:18 51.07238 4.89812 6217 ft 223 kts 112°
2026-05-07 19:18 51.06656 4.92034 6089 ft 213 kts 112°
2026-05-07 19:18 51.05997 4.94083 5947 ft 206 kts 132°
2026-05-07 19:18 51.04821 4.95220 5821 ft 197 kts 170°
2026-05-07 19:19 51.03501 4.94949 5756 ft 195 kts 208°
2026-05-07 19:19 51.02404 4.93690 5677 ft 196 kts 220°
2026-05-07 19:19 51.01393 4.92239 5515 ft 196 kts 222°
2026-05-07 19:19 51.00399 4.90761 5358 ft 196 kts 223°
2026-05-07 19:20 50.99411 4.89281 5153 ft 195 kts 223°
2026-05-07 19:20 50.98425 4.87798 4955 ft 195 kts 223°
2026-05-07 19:20 50.97607 4.86088 4665 ft 197 kts 248°
2026-05-07 19:20 50.97137 4.84044 4403 ft 198 kts 250°
2026-05-07 19:21 50.96670 4.81966 4147 ft 195 kts 250°
2026-05-07 19:21 50.96220 4.79982 3869 ft 187 kts 250°
2026-05-07 19:21 50.95789 4.78086 3610 ft 179 kts 250°
2026-05-07 19:21 50.95376 4.76272 3370 ft 173 kts 250°
2026-05-07 19:22 50.94970 4.74487 3146 ft 171 kts 250°
2026-05-07 19:22 50.94566 4.72718 2908 ft 170 kts 250°
2026-05-07 19:22 50.94163 4.70949 2678 ft 170 kts 250°
2026-05-07 19:22 50.93761 4.69193 2453 ft 169 kts 250°
2026-05-07 19:23 50.93361 4.67443 2218 ft 169 kts 250°
2026-05-07 19:23 50.92961 4.65696 1989 ft 168 kts 250°
2026-05-07 19:23 50.92564 4.63962 1763 ft 167 kts 250°
2026-05-07 19:23 50.92167 4.62230 1545 ft 165 kts 250°
2026-05-07 19:24 50.91808 4.60665 1326 ft 155 kts 250°
2026-05-07 19:24 50.91465 4.59169 1118 ft 150 kts 250°
2026-05-07 19:24 50.91110 4.57622 909 ft 148 kts 250°
2026-05-07 19:24 50.90759 4.56096 701 ft 147 kts 250°
2026-05-07 19:25 50.90409 4.54574 507 ft 147 kts 250°
2026-05-07 19:25 50.90061 4.53062 313 ft 146 kts 250°
2026-05-07 19:25 50.89717 4.51549 172 ft 144 kts 250°
2026-05-07 19:25 50.89412 4.50235 171 ft 105 kts 249°
2026-05-07 19:26 50.89220 4.49402 167 ft 63 kts 250°
2026-05-07 19:26 50.89156 4.49109 169 ft 11 kts 268°
2026-05-07 19:26 50.89225 4.49049 167 ft 15 kts 17°
2026-05-07 19:26 50.89244 4.49058 167 ft 3 kts 16°
2026-05-07 19:27 50.89275 4.49073 166 ft 7 kts 17°
2026-05-07 19:27 50.89334 4.49098 165 ft 11 kts 11°
2026-05-07 19:27 50.89409 4.49125 163 ft 12 kts 13°
2026-05-07 19:27 50.89478 4.49153 164 ft 9 kts 14°
2026-05-07 19:28 50.89499 4.49161 164 ft 3 kts 15°
2026-05-07 19:28 50.89523 4.49172 164 ft 5 kts 15°
2026-05-07 19:28 50.89564 4.49190 164 ft 8 kts 15°
2026-05-07 19:28 50.89629 4.49151 161 ft 13 kts 340°
2026-05-07 19:29 50.89716 4.49175 160 ft 12 kts 15°
2026-05-07 19:29 50.89803 4.49211 160 ft 13 kts 14°
2026-05-07 19:29 50.89898 4.49250 157 ft 16 kts 14°
2026-05-07 19:29 50.90014 4.49299 152 ft 19 kts 17°
2026-05-07 19:30 50.90155 4.49353 145 ft 23 kts 10°
2026-05-07 19:30 50.90268 4.49401 141 ft 14 kts 16°
2026-05-07 19:30 50.90331 4.49339 137 ft 14 kts 259°
2026-05-07 19:30 50.90292 4.49201 138 ft 14 kts 245°
2026-05-07 19:31 50.90254 4.49069 140 ft 13 kts 245°
2026-05-07 19:31 50.90218 4.48942 141 ft 13 kts 246°
2026-05-07 19:31 50.90178 4.48806 141 ft 14 kts 244°
2026-05-07 19:31 50.90137 4.48663 140 ft 14 kts 245°
2026-05-07 19:32 50.90111 4.48575 139 ft 8 kts 244°
2026-05-07 19:32 50.90088 4.48514 139 ft 5 kts 223°
2026-05-07 19:32 50.90068 4.48507 140 ft 2 kts 182°
2026-05-07 19:32 50.90055 4.48507 141 ft 2 kts 174°
2026-05-07 19:33 50.90038 4.48518 142 ft 2 kts 156°
2026-05-07 19:33 50.90034 4.48521 142 ft 0 kts 155°
2026-05-07 19:33 50.90014 4.48534 143 ft 4 kts 156°
2026-05-07 19:33 50.90010 4.48537 144 ft 0 kts 158°